Flag for U.S.A. Weather past 2 weeks in Corpus Christi, Texas, U.S.A.

Now
86 °F

Broken clouds.


Feels Like: 95 °F
Forecast: 79 / 90 °F
Wind: 8 mph from Southeast

Location: Corpus Christi International Airport

Current Time: Aug 29, 2014 at 3:52:43 PM

Latest Report: Aug 29, 2014 at 1:51 PM


Visibility: 10 mi

Pressure: 29.82 "Hg

Humidity: 70%

Dew point: 75 °F

Location of Corpus ChristiLocation

Historic Weather in Corpus Christi — Graph

°F

Corpus Christi temperature yesterday

Maximum temperature yesterday: 92 °F (at 12:51 PM)
Minimum temperature yesterday: 81 °F (at 5:51 AM)
Average temperature yesterday: 86 °F

Past Weeks' High & Low Weather Summary

 TemperatureHumidityPressure
High99 °F (Aug 16, 12:51 PM)94% (Aug 22, 6:51 AM)30.04 "Hg (Aug 22, 6:51 AM)
Low74 °F (Aug 23, 5:51 AM)35% (Aug 22, 1:51 PM)29.79 "Hg (Aug 29, 3:51 AM)
Average86 °F71%29.92 "Hg
* Reported Aug 14 1:51 PM — Aug 29 1:51 PM, Corpus Christi, Weather by CustomWeather, © 2014

Note: Actual official high and low records may vary slightly from our data, if they occured in-between our weather recording intervals... More about our weather records

Advertising

Corpus Christi weather history for previous 24 hours

 ConditionsComfort  
Time TempWeatherWind HumidityBarometerVisibility
1:51 PM
Aug 29
86 °FBroken clouds.8 mph70%29.82 "Hg10 mi
12:51 PM82 °FCloudy.6 mph82%29.82 "Hg10 mi
11:51 AM78 °FCloudy.10 mph93%29.85 "Hg10 mi
10:51 AM78 °FLight rain. Broken clouds.12 mph90%29.86 "Hg10 mi
9:51 AM79 °FPartly sunny.10 mph88%29.85 "Hg10 mi
8:51 AM78 °FCloudy.8 mph87%29.84 "Hg10 mi
7:51 AM77 °FLight rain. Mostly cloudy.7 mph94%29.83 "Hg10 mi
6:51 AM77 °FMostly cloudy.No wind94%29.82 "Hg10 mi
5:51 AM78 °FLight rain. Overcast.7 mph93%29.80 "Hg9 mi
4:51 AM79 °FOvercast.10 mph84%29.80 "Hg10 mi
3:51 AM83 °FPassing clouds.10 mph85%29.79 "Hg10 mi
2:51 AM83 °FPassing clouds.12 mph82%29.81 "Hg10 mi
1:51 AM83 °FPassing clouds.14 mph82%29.83 "Hg10 mi
12:51 AM83 °FLight rain. Overcast.12 mph82%29.84 "Hg10 mi
11:51 PM
Aug 28
84 °FPartly cloudy.13 mph74%29.85 "Hg10 mi
10:51 PM83 °FPartly cloudy.12 mph79%29.84 "Hg10 mi
10:01 PM84 °FPassing clouds.15 mph80%29.84 "Hg10 mi
8:51 PM84 °FPartly sunny.16 mph77%29.82 "Hg10 mi
7:51 PM85 °FPartly sunny.20 mph72%29.80 "Hg10 mi
6:51 PM88 °FBroken clouds.18 mph63%29.81 "Hg10 mi
5:51 PM89 °FBroken clouds.16 mph61%29.81 "Hg10 mi
4:51 PM89 °FBroken clouds.15 mph57%29.82 "Hg10 mi
3:51 PM88 °FBroken clouds.17 mph65%29.83 "Hg10 mi
Weather by CustomWeather, © 2014

See weather overviewHow to use our weather pages